Time,TemperatureF,DewpointF,PressureIn,WindDirection,WindDirectionDegrees,WindSpeedMPH,WindSpeedGustMPH,Humidity,HourlyPrecipIn,Conditions,Clouds,dailyrainin,SoftwareType,DateUTC
2013-01-08 00:02:00,29.3,18.0,29.29,WNW,292,3.0,8.0,62,-99.99,,,0.00,meteohub,2013-01-08 05:02:00,
2013-01-08 00:03:00,29.3,18.0,29.29,WSW,248,4.0,8.0,62,-99.99,,,0.00,meteohub,2013-01-08 05:03:00,
2013-01-08 00:06:00,29.3,18.0,29.29,South,180,5.0,8.0,62,-99.99,,,0.00,meteohub,2013-01-08 05:06:00,
2013-01-08 00:11:00,29.3,18.0,29.29,WSW,248,6.0,8.0,62,-99.99,,,0.00,meteohub,2013-01-08 05:11:00,
2013-01-08 00:16:00,29.1,17.8,29.29,WSW,248,5.0,9.0,62,-99.99,,,0.00,meteohub,2013-01-08 05:16:00,
2013-01-08 00:21:00,28.9,18.0,29.29,South,180,5.0,9.0,63,-99.99,,,0.00,meteohub,2013-01-08 05:21:00,
2013-01-08 00:26:00,28.9,18.0,29.29,WSW,248,4.0,9.0,63,-99.99,,,0.00,meteohub,2013-01-08 05:26:00,
2013-01-08 00:31:00,28.8,17.8,29.29,South,180,5.0,8.0,63,-99.99,,,0.00,meteohub,2013-01-08 05:31:00,
2013-01-08 00:36:00,28.6,17.6,29.29,SE,135,5.0,8.0,63,-99.99,,,0.00,meteohub,2013-01-08 05:36:00,
2013-01-08 00:41:00,28.6,18.0,29.29,WSW,248,6.0,8.0,64,-99.99,,,0.00,meteohub,2013-01-08 05:41:00,
2013-01-08 00:46:00,28.6,18.0,29.29,SW,225,5.0,7.0,64,-99.99,,,0.00,meteohub,2013-01-08 05:46:00,
2013-01-08 00:52:00,28.6,18.0,29.29,SSW,202,2.0,7.0,64,-99.99,,,0.00,meteohub,2013-01-08 05:52:00,
2013-01-08 00:57:00,28.2,18.0,29.29,SW,225,4.0,6.0,65,-99.99,,,0.00,meteohub,2013-01-08 05:57:00,
2013-01-08 01:02:00,28.0,17.8,29.29,SSE,158,3.0,6.0,65,-99.99,,,0.00,meteohub,2013-01-08 06:02:00,
2013-01-08 01:07:00,27.9,18.0,29.29,WNW,292,3.0,6.0,66,-99.99,,,0.00,meteohub,2013-01-08 06:07:00,
2013-01-08 01:12:00,27.9,18.0,29.29,SW,225,3.0,6.0,66,-99.99,,,0.00,meteohub,2013-01-08 06:12:00,
2013-01-08 01:17:00,27.9,18.0,29.29,WSW,248,5.0,6.0,66,-99.99,,,0.00,meteohub,2013-01-08 06:17:00,
2013-01-08 01:22:00,27.7,18.1,29.29,SSE,158,3.0,6.0,67,-99.99,,,0.00,meteohub,2013-01-08 06:22:00,
2013-01-08 01:27:00,27.7,18.1,29.29,SW,225,4.0,6.0,67,-99.99,,,0.00,meteohub,2013-01-08 06:27:00,
2013-01-08 01:32:00,27.5,18.0,29.29,WSW,248,3.0,6.0,67,-99.99,,,0.00,meteohub,2013-01-08 06:32:00,
2013-01-08 01:37:00,27.3,17.8,29.29,SW,225,5.0,6.0,67,-99.99,,,0.00,meteohub,2013-01-08 06:37:00,
2013-01-08 01:42:00,27.3,18.1,29.29,SW,225,3.0,6.0,68,-99.99,,,0.00,meteohub,2013-01-08 06:42:00,
2013-01-08 01:47:00,27.1,18.0,29.29,West,270,4.0,6.0,68,-99.99,,,0.00,meteohub,2013-01-08 06:47:00,
2013-01-08 01:52:00,27.0,17.8,29.29,NW,315,4.0,6.0,68,-99.99,,,0.00,meteohub,2013-01-08 06:52:00,
2013-01-08 01:57:00,27.0,17.8,29.29,SSW,202,4.0,6.0,68,-99.99,,,0.00,meteohub,2013-01-08 06:57:00,
2013-01-08 02:02:00,26.8,17.6,29.29,NW,315,4.0,5.0,68,-99.99,,,0.00,meteohub,2013-01-08 07:02:00,
2013-01-08 02:07:00,26.8,18.0,29.29,SW,225,6.0,6.0,69,-99.99,,,0.00,meteohub,2013-01-08 07:07:00,
2013-01-08 02:12:00,26.6,17.8,29.29,WSW,248,3.0,5.0,69,-99.99,,,0.00,meteohub,2013-01-08 07:12:00,
2013-01-08 02:17:00,26.6,17.8,29.29,WSW,248,4.0,6.0,69,-99.99,,,0.00,meteohub,2013-01-08 07:17:00,
2013-01-08 02:22:00,26.4,18.0,29.29,SSW,202,3.0,6.0,70,-99.99,,,0.00,meteohub,2013-01-08 07:22:00,
2013-01-08 02:27:00,26.4,18.0,29.29,WSW,248,4.0,5.0,70,-99.99,,,0.00,meteohub,2013-01-08 07:27:00,
2013-01-08 02:32:00,26.4,18.3,29.29,SSW,202,3.0,5.0,71,-99.99,,,0.00,meteohub,2013-01-08 07:32:00,
2013-01-08 02:37:00,26.4,18.3,29.29,SSW,202,4.0,5.0,71,-99.99,,,0.00,meteohub,2013-01-08 07:37:00,
2013-01-08 02:43:00,26.2,18.1,29.29,WSW,248,2.0,6.0,71,-99.99,,,0.00,meteohub,2013-01-08 07:43:00,
2013-01-08 02:48:00,26.1,17.6,29.29,SSW,202,2.0,6.0,70,-99.99,,,0.00,meteohub,2013-01-08 07:48:00,
2013-01-08 02:53:00,26.1,17.6,29.29,WNW,292,1.0,6.0,70,-99.99,,,0.00,meteohub,2013-01-08 07:53:00,
2013-01-08 02:58:00,26.1,18.0,29.29,WSW,248,3.0,4.0,71,-99.99,,,0.00,meteohub,2013-01-08 07:58:00,
2013-01-08 03:03:00,26.1,18.0,29.32,SW,225,2.0,4.0,71,-99.99,,,0.00,meteohub,2013-01-08 08:03:00,
2013-01-08 03:08:00,25.9,17.8,29.32,WSW,248,3.0,4.0,71,-99.99,,,0.00,meteohub,2013-01-08 08:08:00,
2013-01-08 03:13:00,25.9,18.1,29.32,West,270,4.0,4.0,72,-99.99,,,0.00,meteohub,2013-01-08 08:13:00,
2013-01-08 03:18:00,25.9,18.1,29.32,SE,135,3.0,3.0,72,-99.99,,,0.00,meteohub,2013-01-08 08:18:00,
2013-01-08 03:23:00,25.9,18.1,29.32,SW,225,2.0,6.0,72,-99.99,,,0.00,meteohub,2013-01-08 08:23:00,
2013-01-08 03:28:00,25.9,18.5,29.32,SSW,202,3.0,6.0,73,-99.99,,,0.00,meteohub,2013-01-08 08:28:00,
2013-01-08 03:33:00,25.9,18.5,29.32,WSW,248,4.0,6.0,73,-99.99,,,0.00,meteohub,2013-01-08 08:33:00,
2013-01-08 03:38:00,25.7,18.0,29.32,West,270,4.0,5.0,72,-99.99,,,0.00,meteohub,2013-01-08 08:38:00,
2013-01-08 03:44:00,25.7,18.3,29.32,SSW,202,2.0,5.0,73,-99.99,,,0.00,meteohub,2013-01-08 08:44:00,
2013-01-08 03:49:00,25.7,18.3,29.32,WSW,248,3.0,5.0,73,-99.99,,,0.00,meteohub,2013-01-08 08:49:00,
2013-01-08 03:54:00,25.7,18.3,29.32,SW,225,3.0,4.0,73,-99.99,,,0.00,meteohub,2013-01-08 08:54:00,
2013-01-08 03:59:00,25.5,18.1,29.32,SW,225,3.0,4.0,73,-99.99,,,0.00,meteohub,2013-01-08 08:59:00,
2013-01-08 04:04:00,25.5,18.3,29.32,SW,225,3.0,4.0,74,-99.99,,,0.00,meteohub,2013-01-08 09:04:00,
2013-01-08 04:09:00,25.5,18.1,29.32,SW,225,4.0,5.0,73,-99.99,,,0.00,meteohub,2013-01-08 09:09:00,
2013-01-08 04:14:00,25.5,18.1,29.32,SW,225,1.0,5.0,73,-99.99,,,0.00,meteohub,2013-01-08 09:14:00,
2013-01-08 04:19:00,25.3,18.0,29.32,WSW,248,3.0,5.0,73,-99.99,,,0.00,meteohub,2013-01-08 09:19:00,
2013-01-08 04:24:00,25.3,18.0,29.32,SSW,202,3.0,4.0,73,-99.99,,,0.00,meteohub,2013-01-08 09:24:00,
2013-01-08 04:29:00,25.3,18.3,29.32,SW,225,2.0,5.0,74,-99.99,,,0.00,meteohub,2013-01-08 09:29:00,
2013-01-08 04:34:00,25.3,18.3,29.32,WSW,248,5.0,6.0,74,-99.99,,,0.00,meteohub,2013-01-08 09:34:00,
2013-01-08 04:39:00,25.3,18.3,29.32,SW,225,4.0,6.0,74,-99.99,,,0.00,meteohub,2013-01-08 09:39:00,
2013-01-08 04:45:00,25.3,18.3,29.32,SW,225,2.0,5.0,74,-99.99,,,0.00,meteohub,2013-01-08 09:45:00,
2013-01-08 04:50:00,25.3,18.3,29.32,WSW,248,2.0,5.0,74,-99.99,,,0.00,meteohub,2013-01-08 09:50:00,
2013-01-08 04:55:00,25.3,18.3,29.32,SSW,202,3.0,4.0,74,-99.99,,,0.00,meteohub,2013-01-08 09:55:00,
2013-01-08 05:00:00,25.3,18.3,29.32,SSW,202,2.0,4.0,74,-99.99,,,0.00,meteohub,2013-01-08 10:00:00,
2013-01-08 05:05:00,25.3,18.3,29.32,SW,225,2.0,5.0,74,-99.99,,,0.00,meteohub,2013-01-08 10:05:00,
2013-01-08 05:10:00,25.2,18.1,29.32,SSW,202,1.0,5.0,74,-99.99,,,0.00,meteohub,2013-01-08 10:10:00,
2013-01-08 05:15:00,25.0,18.0,29.32,SW,225,2.0,5.0,74,-99.99,,,0.00,meteohub,2013-01-08 10:15:00,
2013-01-08 05:20:00,25.0,18.0,29.32,WSW,248,2.0,4.0,74,-99.99,,,0.00,meteohub,2013-01-08 10:20:00,
2013-01-08 05:25:00,25.0,18.0,29.32,WSW,248,3.0,4.0,74,-99.99,,,0.00,meteohub,2013-01-08 10:25:00,
2013-01-08 05:31:00,25.0,18.1,29.32,SW,225,3.0,4.0,75,-99.99,,,0.00,meteohub,2013-01-08 10:31:00,
2013-01-08 05:36:00,25.0,18.1,29.32,South,180,1.0,4.0,75,-99.99,,,0.00,meteohub,2013-01-08 10:36:00,
2013-01-08 05:41:00,25.0,18.1,29.32,SW,225,1.0,4.0,75,-99.99,,,0.00,meteohub,2013-01-08 10:41:00,
2013-01-08 05:46:00,24.8,18.0,29.32,SW,225,1.0,4.0,75,-99.99,,,0.00,meteohub,2013-01-08 10:46:00,
2013-01-08 05:51:00,24.8,18.0,29.32,WSW,248,2.0,4.0,75,-99.99,,,0.00,meteohub,2013-01-08 10:51:00,
2013-01-08 05:56:00,24.8,18.0,29.32,WSW,248,3.0,4.0,75,-99.99,,,0.00,meteohub,2013-01-08 10:56:00,
2013-01-08 06:01:00,24.8,18.0,29.32,WSW,248,2.0,4.0,75,-99.99,,,0.00,meteohub,2013-01-08 11:01:00,
2013-01-08 06:07:00,24.6,17.8,29.32,WSW,248,3.0,4.0,75,-99.99,,,0.00,meteohub,2013-01-08 11:07:00,
2013-01-08 06:12:00,24.6,17.8,29.32,SW,225,2.0,4.0,75,-99.99,,,0.00,meteohub,2013-01-08 11:12:00,
2013-01-08 06:17:00,24.4,17.6,29.35,West,270,2.0,4.0,75,-99.99,,,0.00,meteohub,2013-01-08 11:17:00,
2013-01-08 06:22:00,24.4,17.6,29.35,South,180,1.0,4.0,75,-99.99,,,0.00,meteohub,2013-01-08 11:22:00,
2013-01-08 06:27:00,24.4,17.6,29.35,SSW,202,1.0,3.0,75,-99.99,,,0.00,meteohub,2013-01-08 11:27:00,
2013-01-08 06:32:00,24.4,18.0,29.35,SSW,202,2.0,3.0,76,-99.99,,,0.00,meteohub,2013-01-08 11:32:00,
2013-01-08 06:37:00,24.4,18.0,29.35,SW,225,2.0,4.0,76,-99.99,,,0.00,meteohub,2013-01-08 11:37:00,
2013-01-08 06:42:00,24.4,18.0,29.35,SW,225,2.0,4.0,76,-99.99,,,0.00,meteohub,2013-01-08 11:42:00,
2013-01-08 06:47:00,24.3,17.8,29.35,WSW,248,2.0,4.0,76,-99.99,,,0.00,meteohub,2013-01-08 11:47:00,
2013-01-08 06:52:00,24.1,17.6,29.35,West,270,2.0,4.0,76,-99.99,,,0.00,meteohub,2013-01-08 11:52:00,
2013-01-08 06:57:00,23.9,17.4,29.35,SW,225,2.0,4.0,76,-99.99,,,0.00,meteohub,2013-01-08 11:57:00,
2013-01-08 07:02:00,23.9,17.4,29.35,SSW,202,2.0,3.0,76,-99.99,,,0.00,meteohub,2013-01-08 12:02:00,
2013-01-08 07:07:00,23.9,17.8,29.35,SSW,202,2.0,3.0,77,-99.99,,,0.00,meteohub,2013-01-08 12:07:00,
2013-01-08 07:12:00,23.7,17.6,29.35,SW,225,2.0,3.0,77,-99.99,,,0.00,meteohub,2013-01-08 12:12:00,
2013-01-08 07:17:00,23.7,17.6,29.35,SW,225,3.0,3.0,77,-99.99,,,0.00,meteohub,2013-01-08 12:17:00,
2013-01-08 07:22:00,23.7,17.6,29.35,SW,225,3.0,3.0,77,-99.99,,,0.00,meteohub,2013-01-08 12:22:00,
2013-01-08 07:27:00,23.7,17.6,29.35,SW,225,3.0,4.0,77,-99.99,,,0.00,meteohub,2013-01-08 12:27:00,
2013-01-08 07:32:00,23.7,17.6,29.35,SW,225,2.0,4.0,77,-99.99,,,0.00,meteohub,2013-01-08 12:32:00,
2013-01-08 07:37:00,23.5,17.8,29.35,SSW,202,4.0,4.0,78,-99.99,,,0.00,meteohub,2013-01-08 12:37:00,
2013-01-08 07:42:00,23.5,17.8,29.35,West,270,2.0,4.0,78,-99.99,,,0.00,meteohub,2013-01-08 12:42:00,
2013-01-08 07:47:00,23.5,17.8,29.32,SW,225,2.0,4.0,78,-99.99,,,0.00,meteohub,2013-01-08 12:47:00,
2013-01-08 07:52:00,23.4,17.2,29.32,SW,225,3.0,4.0,77,-99.99,,,0.00,meteohub,2013-01-08 12:52:00,
2013-01-08 07:58:00,23.4,17.6,29.32,WSW,248,3.0,4.0,78,-99.99,,,0.00,meteohub,2013-01-08 12:58:00,
2013-01-08 08:03:00,23.4,17.6,29.35,West,270,3.0,4.0,78,-99.99,,,0.00,meteohub,2013-01-08 13:03:00,
2013-01-08 08:08:00,23.4,17.6,29.35,SSW,202,3.0,4.0,78,-99.99,,,0.00,meteohub,2013-01-08 13:08:00,
2013-01-08 08:13:00,23.4,17.8,29.35,WSW,248,4.0,4.0,79,-99.99,,,0.00,meteohub,2013-01-08 13:13:00,
2013-01-08 08:18:00,23.5,18.0,29.38,SW,225,3.0,4.0,79,-99.99,,,0.00,meteohub,2013-01-08 13:18:00,
2013-01-08 08:23:00,23.5,18.0,29.38,SW,225,4.0,4.0,79,-99.99,,,0.00,meteohub,2013-01-08 13:23:00,
2013-01-08 08:28:00,23.7,18.1,29.38,SW,225,3.0,4.0,79,-99.99,,,0.00,meteohub,2013-01-08 13:28:00,
2013-01-08 08:33:00,23.7,18.1,29.38,WSW,248,2.0,4.0,79,-99.99,,,0.00,meteohub,2013-01-08 13:33:00,
2013-01-08 08:38:00,23.9,18.3,29.38,WSW,248,3.0,4.0,79,-99.99,,,0.00,meteohub,2013-01-08 13:38:00,
2013-01-08 08:43:00,24.1,18.3,29.38,SW,225,4.0,4.0,78,-99.99,,,0.00,meteohub,2013-01-08 13:43:00,
2013-01-08 08:49:00,24.3,18.3,29.38,SW,225,2.0,5.0,78,-99.99,,,0.00,meteohub,2013-01-08 13:49:00,
2013-01-08 08:54:00,24.4,18.3,29.38,SW,225,3.0,5.0,77,-99.99,,,0.00,meteohub,2013-01-08 13:54:00,
2013-01-08 08:59:00,24.6,18.5,29.38,SW,225,3.0,5.0,77,-99.99,,,0.00,meteohub,2013-01-08 13:59:00,
2013-01-08 09:04:00,24.8,18.3,29.41,WSW,248,2.0,4.0,76,-99.99,,,0.00,meteohub,2013-01-08 14:04:00,
2013-01-08 09:10:00,25.2,18.7,29.41,WSW,248,2.0,5.0,76,-99.99,,,0.00,meteohub,2013-01-08 14:10:00,
2013-01-08 09:15:00,25.3,18.3,29.41,WSW,248,3.0,5.0,74,-99.99,,,0.00,meteohub,2013-01-08 14:15:00,
2013-01-08 09:20:00,25.5,18.3,29.41,SW,225,3.0,4.0,74,-99.99,,,0.00,meteohub,2013-01-08 14:20:00,
2013-01-08 09:25:00,25.7,18.3,29.41,SW,225,4.0,4.0,73,-99.99,,,0.00,meteohub,2013-01-08 14:25:00,
2013-01-08 09:30:00,25.9,18.1,29.41,WSW,248,2.0,4.0,72,-99.99,,,0.00,meteohub,2013-01-08 14:30:00,
2013-01-08 09:35:00,26.2,18.1,29.41,WSW,248,3.0,4.0,71,-99.99,,,0.00,meteohub,2013-01-08 14:35:00,
2013-01-08 09:40:00,26.6,18.5,29.41,NNW,338,3.0,5.0,71,-99.99,,,0.00,meteohub,2013-01-08 14:40:00,
2013-01-08 09:46:00,26.8,18.3,29.41,SSW,202,3.0,5.0,70,-99.99,,,0.00,meteohub,2013-01-08 14:46:00,
2013-01-08 09:51:00,27.0,18.1,29.41,SW,225,2.0,5.0,69,-99.99,,,0.00,meteohub,2013-01-08 14:51:00,
2013-01-08 09:56:00,27.5,18.7,29.41,SW,225,1.0,4.0,69,-99.99,,,0.00,meteohub,2013-01-08 14:56:00,
2013-01-08 10:01:00,27.9,18.7,29.41,SW,225,2.0,4.0,68,-99.99,,,0.00,meteohub,2013-01-08 15:01:00,
2013-01-08 10:06:00,28.4,18.5,29.41,SW,225,2.0,4.0,66,-99.99,,,0.00,meteohub,2013-01-08 15:06:00,
2013-01-08 10:11:00,28.9,18.7,29.41,South,180,2.0,4.0,65,-99.99,,,0.00,meteohub,2013-01-08 15:11:00,
2013-01-08 10:16:00,29.7,19.4,29.41,SW,225,0.0,4.0,65,-99.99,,,0.00,meteohub,2013-01-08 15:16:00,
2013-01-08 10:22:00,30.2,19.2,29.41,SW,225,2.0,4.0,63,-99.99,,,0.00,meteohub,2013-01-08 15:22:00,
2013-01-08 10:27:00,30.4,18.5,29.41,WSW,248,2.0,4.0,61,-99.99,,,0.00,meteohub,2013-01-08 15:27:00,
2013-01-08 10:32:00,30.6,18.3,29.41,SSW,202,2.0,4.0,60,-99.99,,,0.00,meteohub,2013-01-08 15:32:00,
2013-01-08 10:37:00,31.1,18.9,29.41,SSW,202,2.0,4.0,60,-99.99,,,0.00,meteohub,2013-01-08 15:37:00,
2013-01-08 10:42:00,31.6,18.5,29.41,SSW,202,3.0,3.0,58,-99.99,,,0.00,meteohub,2013-01-08 15:42:00,
2013-01-08 10:47:00,32.0,18.5,29.41,SSW,202,3.0,3.0,57,-99.99,,,0.00,meteohub,2013-01-08 15:47:00,
2013-01-08 10:52:00,32.5,19.4,29.41,South,180,2.0,3.0,58,-99.99,,,0.00,meteohub,2013-01-08 15:52:00,
2013-01-08 10:57:00,32.5,19.4,29.41,South,180,2.0,3.0,58,-99.99,,,0.00,meteohub,2013-01-08 15:57:00,
2013-01-08 11:02:00,32.9,19.0,29.41,South,180,2.0,3.0,56,-99.99,,,0.00,meteohub,2013-01-08 16:02:00,
2013-01-08 11:07:00,32.9,19.0,29.41,South,180,2.0,2.0,56,-99.99,,,0.00,meteohub,2013-01-08 16:07:00,
2013-01-08 11:37:00,35.8,19.0,29.41,East,90,2.0,-999.0,50,-99.99,,,0.00,meteohub,2013-01-08 16:37:00,
2013-01-08 11:42:00,36.0,19.2,29.41,SW,225,2.0,3.0,50,-99.99,,,0.00,meteohub,2013-01-08 16:42:00,
2013-01-08 11:47:00,35.6,18.3,29.41,WSW,248,3.0,4.0,49,-99.99,,,0.00,meteohub,2013-01-08 16:47:00,
2013-01-08 11:52:00,35.4,18.1,29.41,SSW,202,2.0,6.0,49,-99.99,,,0.00,meteohub,2013-01-08 16:52:00,
2013-01-08 11:57:00,35.6,18.9,29.41,WSW,248,1.0,6.0,50,-99.99,,,0.00,meteohub,2013-01-08 16:57:00,
2013-01-08 12:03:00,35.8,19.0,29.41,SW,225,4.0,6.0,50,-99.99,,,0.00,meteohub,2013-01-08 17:03:00,
2013-01-08 12:08:00,36.3,19.6,29.41,SW,225,2.0,5.0,50,-99.99,,,0.00,meteohub,2013-01-08 17:08:00,
2013-01-08 12:13:00,36.3,19.6,29.41,West,270,2.0,4.0,50,-99.99,,,0.00,meteohub,2013-01-08 17:13:00,
2013-01-08 12:18:00,36.0,18.7,29.38,SW,225,2.0,4.0,49,-99.99,,,0.00,meteohub,2013-01-08 17:18:00,
2013-01-08 12:23:00,36.3,19.6,29.38,SSW,202,1.0,4.0,50,-99.99,,,0.00,meteohub,2013-01-08 17:23:00,
2013-01-08 12:28:00,36.3,19.0,29.38,SSE,158,3.0,4.0,49,-99.99,,,0.00,meteohub,2013-01-08 17:28:00,
2013-01-08 12:33:00,36.3,19.0,29.38,SE,135,0.0,4.0,49,-99.99,,,0.00,meteohub,2013-01-08 17:33:00,
2013-01-08 12:38:00,36.5,19.2,29.38,NW,315,1.0,3.0,49,-99.99,,,0.00,meteohub,2013-01-08 17:38:00,
2013-01-08 12:43:00,36.1,18.9,29.38,SW,225,3.0,3.0,49,-99.99,,,0.00,meteohub,2013-01-08 17:43:00,
2013-01-08 12:48:00,36.3,19.0,29.38,ESE,112,0.0,3.0,49,-99.99,,,0.00,meteohub,2013-01-08 17:48:00,
2013-01-08 12:53:00,36.7,19.4,29.38,SSW,202,3.0,3.0,49,-99.99,,,0.00,meteohub,2013-01-08 17:53:00,
2013-01-08 12:59:00,36.3,19.0,29.38,South,180,1.0,3.0,49,-99.99,,,0.00,meteohub,2013-01-08 17:59:00,
2013-01-08 13:04:00,36.1,19.4,29.38,NE,45,0.0,3.0,50,-99.99,,,0.00,meteohub,2013-01-08 18:04:00,
2013-01-08 13:09:00,35.8,18.5,29.38,SSE,158,1.0,3.0,49,-99.99,,,0.00,meteohub,2013-01-08 18:09:00,
2013-01-08 13:14:00,36.0,19.2,29.38,WSW,248,1.0,3.0,50,-99.99,,,0.00,meteohub,2013-01-08 18:14:00,
2013-01-08 13:19:00,36.0,19.2,29.38,SSW,202,2.0,3.0,50,-99.99,,,0.00,meteohub,2013-01-08 18:19:00,
2013-01-08 13:24:00,36.1,19.4,29.38,SW,225,0.0,3.0,50,-99.99,,,0.00,meteohub,2013-01-08 18:24:00,
2013-01-08 13:29:00,36.7,19.8,29.38,South,180,0.0,3.0,50,-99.99,,,0.00,meteohub,2013-01-08 18:29:00,
2013-01-08 13:34:00,36.7,19.8,29.35,SSW,202,1.0,3.0,50,-99.99,,,0.00,meteohub,2013-01-08 18:34:00,
2013-01-08 13:39:00,36.9,19.9,29.35,WNW,292,1.0,3.0,50,-99.99,,,0.00,meteohub,2013-01-08 18:39:00,
2013-01-08 13:44:00,37.0,20.1,29.35,SW,225,0.0,3.0,50,-99.99,,,0.00,meteohub,2013-01-08 18:44:00,
2013-01-08 13:49:00,37.0,19.8,29.38,South,180,0.0,3.0,49,-99.99,,,0.00,meteohub,2013-01-08 18:49:00,
2013-01-08 13:54:00,37.6,20.1,29.38,SW,225,0.0,4.0,49,-99.99,,,0.00,meteohub,2013-01-08 18:54:00,
2013-01-08 14:00:00,37.8,20.3,29.38,NE,45,1.0,4.0,49,-99.99,,,0.00,meteohub,2013-01-08 19:00:00,
2013-01-08 14:05:00,37.9,20.1,29.35,SSW,202,1.0,2.0,48,-99.99,,,0.00,meteohub,2013-01-08 19:05:00,
2013-01-08 14:10:00,37.9,20.1,29.35,ENE,68,0.0,4.0,48,-99.99,,,0.00,meteohub,2013-01-08 19:10:00,
2013-01-08 14:16:00,38.3,19.9,29.38,SW,225,1.0,4.0,47,-99.99,,,0.00,meteohub,2013-01-08 19:16:00,
2013-01-08 14:21:00,38.7,20.7,29.38,South,180,2.0,4.0,48,-99.99,,,0.00,meteohub,2013-01-08 19:21:00,
2013-01-08 14:26:00,38.8,20.3,29.38,SSW,202,1.0,4.0,47,-99.99,,,0.00,meteohub,2013-01-08 19:26:00,
2013-01-08 14:32:00,39.0,21.0,29.38,East,90,2.0,4.0,48,-99.99,,,0.00,meteohub,2013-01-08 19:32:00,
2013-01-08 14:37:00,39.0,20.5,29.38,WSW,248,0.0,4.0,47,-99.99,,,0.00,meteohub,2013-01-08 19:37:00,
2013-01-08 14:42:00,38.7,20.3,29.38,NE,45,0.0,3.0,47,-99.99,,,0.00,meteohub,2013-01-08 19:42:00,
2013-01-08 14:47:00,38.7,19.8,29.38,North,0,0.0,3.0,46,-99.99,,,0.00,meteohub,2013-01-08 19:47:00,
2013-01-08 14:52:00,38.7,20.3,29.38,ENE,68,0.0,3.0,47,-99.99,,,0.00,meteohub,2013-01-08 19:52:00,
2013-01-08 14:57:00,38.8,20.8,29.38,South,180,1.0,3.0,48,-99.99,,,0.00,meteohub,2013-01-08 19:57:00,
2013-01-08 15:02:00,38.8,20.8,29.38,South,180,1.0,3.0,48,-99.99,,,0.00,meteohub,2013-01-08 20:02:00,
2013-01-08 15:07:00,38.8,20.3,29.38,East,90,3.0,3.0,47,-99.99,,,0.00,meteohub,2013-01-08 20:07:00,
2013-01-08 15:12:00,38.8,20.8,29.38,SSW,202,3.0,5.0,48,-99.99,,,0.00,meteohub,2013-01-08 20:12:00,
2013-01-08 15:17:00,38.8,20.8,29.38,NE,45,2.0,5.0,48,-99.99,,,0.00,meteohub,2013-01-08 20:17:00,
2013-01-08 15:22:00,39.0,21.6,29.38,East,90,0.0,5.0,49,-99.99,,,0.00,meteohub,2013-01-08 20:22:00,
2013-01-08 15:27:00,39.0,21.0,29.38,NE,45,1.0,4.0,48,-99.99,,,0.00,meteohub,2013-01-08 20:27:00,
2013-01-08 15:32:00,39.0,21.0,29.38,East,90,0.0,3.0,48,-99.99,,,0.00,meteohub,2013-01-08 20:32:00,
2013-01-08 15:37:00,38.8,20.8,29.38,NW,315,1.0,3.0,48,-99.99,,,0.00,meteohub,2013-01-08 20:37:00,
2013-01-08 15:43:00,38.8,20.8,29.38,SE,135,1.0,3.0,48,-99.99,,,0.00,meteohub,2013-01-08 20:43:00,
2013-01-08 15:48:00,38.7,20.7,29.38,NW,315,1.0,4.0,48,-99.99,,,0.00,meteohub,2013-01-08 20:48:00,
2013-01-08 15:53:00,38.7,20.7,29.38,SSW,202,1.0,4.0,48,-99.99,,,0.00,meteohub,2013-01-08 20:53:00,
2013-01-08 15:58:00,38.5,20.5,29.38,ESE,112,2.0,4.0,48,-99.99,,,0.00,meteohub,2013-01-08 20:58:00,
2013-01-08 16:03:00,38.3,20.8,29.38,NE,45,0.0,3.0,49,-99.99,,,0.00,meteohub,2013-01-08 21:03:00,
2013-01-08 16:08:00,38.1,20.7,29.38,ENE,68,1.0,3.0,49,-99.99,,,0.00,meteohub,2013-01-08 21:08:00,
2013-01-08 16:13:00,37.8,20.3,29.38,WNW,292,2.0,3.0,49,-99.99,,,0.00,meteohub,2013-01-08 21:13:00,
2013-01-08 16:18:00,37.6,20.1,29.38,WSW,248,1.0,2.0,49,-99.99,,,0.00,meteohub,2013-01-08 21:18:00,
2013-01-08 16:23:00,37.4,20.1,29.38,SW,225,1.0,2.0,49,-99.99,,,0.00,meteohub,2013-01-08 21:23:00,
2013-01-08 16:28:00,37.4,20.1,29.38,SW,225,2.0,3.0,49,-99.99,,,0.00,meteohub,2013-01-08 21:28:00,
2013-01-08 16:33:00,37.2,20.3,29.38,NE,45,0.0,3.0,50,-99.99,,,0.00,meteohub,2013-01-08 21:33:00,
2013-01-08 16:39:00,37.0,20.1,29.38,SE,135,1.0,3.0,50,-99.99,,,0.00,meteohub,2013-01-08 21:39:00,
2013-01-08 16:44:00,36.7,19.8,29.38,SW,225,1.0,3.0,50,-99.99,,,0.00,meteohub,2013-01-08 21:44:00,
2013-01-08 16:49:00,36.5,19.8,29.38,NNW,338,1.0,3.0,50,-99.99,,,0.00,meteohub,2013-01-08 21:49:00,
2013-01-08 16:54:00,36.3,19.6,29.38,SW,225,0.0,3.0,50,-99.99,,,0.00,meteohub,2013-01-08 21:54:00,
2013-01-08 16:59:00,36.0,19.6,29.38,ENE,68,1.0,3.0,51,-99.99,,,0.00,meteohub,2013-01-08 21:59:00,
2013-01-08 17:04:00,35.6,19.2,29.38,WNW,292,0.0,3.0,51,-99.99,,,0.00,meteohub,2013-01-08 22:04:00,
2013-01-08 17:09:00,35.2,19.0,29.38,SSW,202,0.0,3.0,51,-99.99,,,0.00,meteohub,2013-01-08 22:09:00,
2013-01-08 17:14:00,35.1,19.2,29.38,WSW,248,0.0,3.0,52,-99.99,,,0.00,meteohub,2013-01-08 22:14:00,
2013-01-08 17:19:00,34.7,18.9,29.38,SW,225,2.0,2.0,52,-99.99,,,0.00,meteohub,2013-01-08 22:19:00,
2013-01-08 17:24:00,34.5,18.7,29.38,South,180,0.0,2.0,52,-99.99,,,0.00,meteohub,2013-01-08 22:24:00,
2013-01-08 17:29:00,34.3,19.0,29.38,SSE,158,0.0,2.0,53,-99.99,,,0.00,meteohub,2013-01-08 22:29:00,
2013-01-08 17:35:00,34.2,18.9,29.41,SSE,158,2.0,2.0,53,-99.99,,,0.00,meteohub,2013-01-08 22:35:00,
2013-01-08 17:40:00,34.0,18.7,29.41,ESE,112,0.0,3.0,53,-99.99,,,0.00,meteohub,2013-01-08 22:40:00,
2013-01-08 17:45:00,33.8,19.0,29.38,WNW,292,0.0,3.0,54,-99.99,,,0.00,meteohub,2013-01-08 22:45:00,
2013-01-08 17:50:00,33.6,19.2,29.38,SSW,202,1.0,3.0,55,-99.99,,,0.00,meteohub,2013-01-08 22:50:00,
2013-01-08 17:55:00,33.3,19.8,29.38,North,0,1.0,3.0,57,-99.99,,,0.00,meteohub,2013-01-08 22:55:00,
2013-01-08 18:00:00,33.1,19.6,29.38,WNW,292,1.0,3.0,57,-99.99,,,0.00,meteohub,2013-01-08 23:00:00,
2013-01-08 18:05:00,32.7,19.2,29.38,NE,45,0.0,3.0,57,-99.99,,,0.00,meteohub,2013-01-08 23:05:00,
2013-01-08 18:10:00,32.5,19.4,29.38,SE,135,0.0,2.0,58,-99.99,,,0.00,meteohub,2013-01-08 23:10:00,
2013-01-08 18:15:00,32.5,19.8,29.38,ESE,112,0.0,2.0,59,-99.99,,,0.00,meteohub,2013-01-08 23:15:00,
2013-01-08 18:21:00,32.4,19.8,29.38,East,90,0.0,2.0,59,-99.99,,,0.00,meteohub,2013-01-08 23:21:00,
2013-01-08 18:26:00,32.2,19.9,29.38,NE,45,0.0,2.0,60,-99.99,,,0.00,meteohub,2013-01-08 23:26:00,
2013-01-08 18:31:00,32.2,20.3,29.38,SSW,202,1.0,2.0,61,-99.99,,,0.00,meteohub,2013-01-08 23:31:00,
2013-01-08 18:36:00,32.0,20.1,29.38,SSW,202,0.0,2.0,61,-99.99,,,0.00,meteohub,2013-01-08 23:36:00,
2013-01-08 18:41:00,31.8,19.9,29.38,SW,225,1.0,2.0,61,-99.99,,,0.00,meteohub,2013-01-08 23:41:00,
2013-01-08 18:46:00,31.5,19.2,29.38,SW,225,0.0,2.0,60,-99.99,,,0.00,meteohub,2013-01-08 23:46:00,
2013-01-08 18:51:00,31.3,19.4,29.38,NW,315,0.0,1.0,61,-99.99,,,0.00,meteohub,2013-01-08 23:51:00,
2013-01-08 18:56:00,31.1,19.2,29.38,SW,225,0.0,1.0,61,-99.99,,,0.00,meteohub,2013-01-08 23:56:00,
2013-01-08 19:01:00,30.7,18.9,29.38,SSW,202,0.0,1.0,61,-99.99,,,0.00,meteohub,2013-01-09 00:01:00,
2013-01-08 19:06:00,30.4,18.9,29.38,SSE,158,0.0,1.0,62,-99.99,,,0.00,meteohub,2013-01-09 00:06:00,
2013-01-08 19:12:00,30.4,18.9,29.38,SSW,202,0.0,2.0,62,-99.99,,,0.00,meteohub,2013-01-09 00:12:00,
2013-01-08 19:17:00,30.7,19.9,29.38,NE,45,2.0,2.0,64,-99.99,,,0.00,meteohub,2013-01-09 00:17:00,
2013-01-08 19:22:00,30.7,19.9,29.38,SW,225,2.0,2.0,64,-99.99,,,0.00,meteohub,2013-01-09 00:22:00,
2013-01-08 19:27:00,30.6,19.9,29.38,WNW,292,1.0,2.0,64,-99.99,,,0.00,meteohub,2013-01-09 00:27:00,
2013-01-08 19:32:00,30.6,20.3,29.38,WSW,248,0.0,2.0,65,-99.99,,,0.00,meteohub,2013-01-09 00:32:00,
2013-01-08 19:37:00,30.6,20.3,29.38,South,180,1.0,3.0,65,-99.99,,,0.00,meteohub,2013-01-09 00:37:00,
2013-01-08 19:42:00,30.6,20.3,29.38,ENE,68,2.0,3.0,65,-99.99,,,0.00,meteohub,2013-01-09 00:42:00,
2013-01-08 19:47:00,30.4,20.1,29.38,SE,135,1.0,3.0,65,-99.99,,,0.00,meteohub,2013-01-09 00:47:00,
2013-01-08 19:52:00,30.6,20.3,29.38,NNW,338,1.0,3.0,65,-99.99,,,0.00,meteohub,2013-01-09 00:52:00,
2013-01-08 19:57:00,30.4,20.1,29.38,SE,135,0.0,3.0,65,-99.99,,,0.00,meteohub,2013-01-09 00:57:00,
2013-01-08 20:02:00,30.6,20.7,29.38,South,180,0.0,3.0,66,-99.99,,,0.00,meteohub,2013-01-09 01:02:00,
2013-01-08 20:07:00,30.6,20.7,29.38,North,0,1.0,2.0,66,-99.99,,,0.00,meteohub,2013-01-09 01:07:00,
2013-01-08 20:12:00,30.6,20.7,29.38,SE,135,1.0,3.0,66,-99.99,,,0.00,meteohub,2013-01-09 01:12:00,
2013-01-08 20:17:00,30.4,20.1,29.38,SSW,202,1.0,3.0,65,-99.99,,,0.00,meteohub,2013-01-09 01:17:00,
2013-01-08 20:22:00,30.2,20.3,29.38,SE,135,1.0,3.0,66,-99.99,,,0.00,meteohub,2013-01-09 01:22:00,
2013-01-08 20:27:00,30.2,20.3,29.38,SSW,202,0.0,2.0,66,-99.99,,,0.00,meteohub,2013-01-09 01:27:00,
2013-01-08 20:32:00,30.2,20.3,29.38,East,90,0.0,3.0,66,-99.99,,,0.00,meteohub,2013-01-09 01:32:00,
2013-01-08 20:37:00,30.0,20.1,29.38,North,0,1.0,3.0,66,-99.99,,,0.00,meteohub,2013-01-09 01:37:00,
2013-01-08 20:42:00,30.0,20.5,29.38,SSW,202,2.0,3.0,67,-99.99,,,0.00,meteohub,2013-01-09 01:42:00,
2013-01-08 20:47:00,30.0,20.8,29.38,South,180,1.0,3.0,68,-99.99,,,0.00,meteohub,2013-01-09 01:47:00,
2013-01-08 20:52:00,30.2,21.0,29.38,SW,225,1.0,3.0,68,-99.99,,,0.00,meteohub,2013-01-09 01:52:00,
2013-01-08 20:57:00,30.2,21.2,29.38,WSW,248,1.0,3.0,69,-99.99,,,0.00,meteohub,2013-01-09 01:57:00,
2013-01-08 21:02:00,30.2,21.2,29.38,South,180,1.0,3.0,69,-99.99,,,0.00,meteohub,2013-01-09 02:02:00,
2013-01-08 21:08:00,30.4,21.4,29.38,WNW,292,0.0,2.0,69,-99.99,,,0.00,meteohub,2013-01-09 02:08:00,
2013-01-08 21:13:00,30.4,21.4,29.38,WSW,248,1.0,3.0,69,-99.99,,,0.00,meteohub,2013-01-09 02:13:00,
2013-01-08 21:18:00,30.4,21.4,29.35,SSE,158,0.0,3.0,69,-99.99,,,0.00,meteohub,2013-01-09 02:18:00,
2013-01-08 21:23:00,30.4,21.4,29.35,WSW,248,1.0,3.0,69,-99.99,,,0.00,meteohub,2013-01-09 02:23:00,
2013-01-08 21:28:00,30.4,21.4,29.35,NNE,22,1.0,2.0,69,-99.99,,,0.00,meteohub,2013-01-09 02:28:00,
2013-01-08 21:33:00,30.2,21.2,29.35,NE,45,2.0,2.0,69,-99.99,,,0.00,meteohub,2013-01-09 02:33:00,
2013-01-08 21:39:00,30.4,21.7,29.35,WSW,248,1.0,2.0,70,-99.99,,,0.00,meteohub,2013-01-09 02:39:00,
2013-01-08 21:44:00,30.4,21.7,29.35,SSE,158,2.0,2.0,70,-99.99,,,0.00,meteohub,2013-01-09 02:44:00,
2013-01-08 21:49:00,30.2,21.9,29.32,West,270,2.0,4.0,71,-99.99,,,0.00,meteohub,2013-01-09 02:49:00,
2013-01-08 21:54:00,30.2,21.9,29.32,SSW,202,2.0,4.0,71,-99.99,,,0.00,meteohub,2013-01-09 02:54:00,
2013-01-08 21:59:00,30.0,21.4,29.32,East,90,0.0,3.0,70,-99.99,,,0.00,meteohub,2013-01-09 02:59:00,
2013-01-08 22:04:00,30.0,21.7,29.35,South,180,1.0,3.0,71,-99.99,,,0.00,meteohub,2013-01-09 03:04:00,
2013-01-08 22:09:00,30.0,21.7,29.35,SSW,202,3.0,3.0,71,-99.99,,,0.00,meteohub,2013-01-09 03:09:00,
2013-01-08 22:14:00,30.2,22.3,29.35,SSW,202,0.0,3.0,72,-99.99,,,0.00,meteohub,2013-01-09 03:14:00,
2013-01-08 22:19:00,30.2,22.3,29.35,SSE,158,2.0,3.0,72,-99.99,,,0.00,meteohub,2013-01-09 03:19:00,
2013-01-08 22:24:00,30.4,22.5,29.35,SW,225,0.0,3.0,72,-99.99,,,0.00,meteohub,2013-01-09 03:24:00,
2013-01-08 22:30:00,30.6,22.6,29.35,SSW,202,2.0,4.0,72,-99.99,,,0.00,meteohub,2013-01-09 03:30:00,
2013-01-08 22:35:00,30.7,23.2,29.35,WSW,248,0.0,4.0,73,-99.99,,,0.00,meteohub,2013-01-09 03:35:00,
2013-01-08 22:40:00,30.7,23.2,29.35,SW,225,3.0,4.0,73,-99.99,,,0.00,meteohub,2013-01-09 03:40:00,
2013-01-08 22:45:00,30.9,23.5,29.35,SW,225,2.0,4.0,74,-99.99,,,0.00,meteohub,2013-01-09 03:45:00,
2013-01-08 22:50:00,30.9,23.4,29.35,SW,225,0.0,4.0,73,-99.99,,,0.00,meteohub,2013-01-09 03:50:00,
2013-01-08 22:55:00,30.6,22.6,29.35,SW,225,0.0,4.0,72,-99.99,,,0.00,meteohub,2013-01-09 03:55:00,
2013-01-08 23:00:00,30.4,22.5,29.35,WSW,248,0.0,4.0,72,-99.99,,,0.00,meteohub,2013-01-09 04:00:00,
2013-01-08 23:05:00,30.4,22.5,29.35,SSW,202,1.0,3.0,72,-99.99,,,0.00,meteohub,2013-01-09 04:05:00,
2013-01-08 23:11:00,30.2,22.6,29.35,SSW,202,2.0,3.0,73,-99.99,,,0.00,meteohub,2013-01-09 04:11:00,
2013-01-08 23:16:00,30.0,22.5,29.35,SSW,202,0.0,3.0,73,-99.99,,,0.00,meteohub,2013-01-09 04:16:00,
2013-01-08 23:21:00,29.8,22.3,29.35,SW,225,0.0,3.0,73,-99.99,,,0.00,meteohub,2013-01-09 04:21:00,
2013-01-08 23:26:00,29.5,21.6,29.35,WSW,248,0.0,3.0,72,-99.99,,,0.00,meteohub,2013-01-09 04:26:00,
2013-01-08 23:31:00,29.3,21.4,29.35,WSW,248,1.0,2.0,72,-99.99,,,0.00,meteohub,2013-01-09 04:31:00,
2013-01-08 23:36:00,29.3,21.7,29.35,SW,225,0.0,2.0,73,-99.99,,,0.00,meteohub,2013-01-09 04:36:00,
2013-01-08 23:41:00,29.1,21.6,29.35,WSW,248,1.0,2.0,73,-99.99,,,0.00,meteohub,2013-01-09 04:41:00,
2013-01-08 23:46:00,29.1,21.6,29.35,SW,225,0.0,2.0,73,-99.99,,,0.00,meteohub,2013-01-09 04:46:00,
2013-01-08 23:52:00,28.9,21.7,29.35,SSW,202,2.0,2.0,74,-99.99,,,0.00,meteohub,2013-01-09 04:52:00,
2013-01-08 23:57:00,28.9,21.7,29.35,ESE,112,0.0,2.0,74,-99.99,,,0.00,meteohub,2013-01-09 04:57:00,